{"data":{"norad_id":52864,"epoch":"2026-09-19T12:56:59.213472Z","epoch_age_seconds":151780,"freshness":"FRESH","line1":"1 52864U 22062AL  26262.53957423  .00000361  00000+0  21818-4 0  9996","line2":"2 52864  53.1610 221.8580 0001272  87.6273 272.4875 15.34386229235350","mean_motion":15.34386229,"eccentricity":0.0001272,"inclination_deg":53.161,"raan_deg":221.858,"arg_perigee_deg":87.6273,"mean_anomaly_deg":272.4875,"bstar":2.1818e-5,"rev_number":23535,"period_min":93.848600357844,"perigee_km":461.8740107424,"apogee_km":463.61433091226,"semimajor_km":6840.8811708273,"source":"CELESTRAK","updated_at":"2026-09-20T09:00:40.117747Z"}}